Location: Bouzot
(47.4680°N, 4.6405°E)
Time: 13:37:08
(UTC+00:00)

Daily predictions for brighter satellites

Satellite Brightness Start Highest point End
(mag) Time Altitude Azimuth Time Altitude Azimuth Time Altitude Azimuth
Landsat 7 3.9 19:47:33 10° SSE 19:52:17 89° ENE 19:57:02 10° NNW
Cosmos 1763 Rocket 4.4 19:48:43 10° NNW 19:53:44 49° WSW 19:58:47 10° S
Cosmos 2221 4.3 19:49:49 10° SW 19:53:50 36° WNW 19:57:52 10° N
Meteor 2-13 Rocket 4.5 19:48:09 10° N 19:54:19 84° E 20:00:28 10° S
Cosmos 1812 2.7 19:51:33 10° S 19:55:18 65° E 19:59:06 10° NNE
CZ-4 R/B 4.3 19:53:40 10° WSW 19:55:41 14° W 19:57:45 10° WNW
ERS-1 Rocket 4.5 19:55:33 10° ESE 19:59:23 22° ENE 20:03:13 10° N
JB-3 4.4 19:56:24 10° NNE 20:00:33 83° ESE 20:04:41 10° S
Cosmos 1802 Rocket 4.3 19:55:10 10° SSW 20:01:36 79° W 20:07:59 10° N
Cosmos 1500 Rocket 4.2 19:57:29 10° NNW 20:01:48 59° W 20:06:06 10° S
ARGOS Delta rocket 4.4 19:58:56 10° NNE 20:04:17 53° E 20:09:37 10° S
USA 238 DEB 4.3 19:57:30 10° NW 20:04:34 55° NE 20:12:02 10° ESE
USA 238 4.3 19:57:36 10° NW 20:04:40 55° NE 20:12:08 10° ESE
Ariane Rocket 3.1 19:59:56 10° SSE 20:04:55 66° ENE 20:09:59 10° N
Cosmos 1400 Rocket 3.1 20:02:47 10° NNW 20:06:37 67° W 20:10:28 10° S
Cosmos 44 3.7 20:03:09 10° NNW 20:07:22 45° NE 20:11:26 10° ESE
Cosmos 2016 Rocket 4.2 20:03:52 10° SSW 20:10:13 80° W 20:16:39 10° N
Meteor 1-14 Rocket 4.4 20:07:02 10° N 20:13:02 77° ENE 20:18:55 10° SSE
H-2A R/B 2.5 20:13:27 10° N 20:17:31 61° WNW 20:21:32 10° SSW
SL-4 R/B 3.1 20:13:24 10° WNW 20:17:53 49° N 20:22:06 10° ENE
CENTAUR R/B 3.3 20:11:16 10° NW 20:19:26 86° NE 20:27:54 12° SE
Cosmos 2233 Rocket 4.0 20:15:45 10° S 20:22:03 78° E 20:28:23 10° N
SPOT 5 3.8 20:17:47 12° SE 20:22:21 39° ENE 20:27:13 10° N
MetOp-B 4.2 20:18:14 10° SSE 20:23:35 76° ENE 20:28:57 10° NNW
Resurs 01 Rocket 1.9 20:19:28 10° S 20:23:50 67° WSW 20:28:14 10° NNW
ATLAS 5 CENTAUR R/B 4.2 20:20:01 10° WNW 20:24:24 23° WSW 20:29:21 10° SSW
Cosmos 2061 Rocket 4.3 20:19:05 10° SSW 20:25:16 72° W 20:31:29 10° N
Cosmos 1328 Rocket 4.0 20:23:19 10° SSE 20:27:21 41° E 20:31:25 10° NNE
BREEZE-M (TANK) 3.6 20:24:00 10° SW 20:27:34 70° SSE 20:40:25 10° ENE
Cosmos 2263 Rocket 4.4 20:28:08 10° N 20:31:21 15° NE 20:34:34 10° ENE
Cosmos 1743 4.1 20:30:47 10° NNE 20:33:58 25° ENE 20:36:03 16° ESE
CZ-4B R/B 2.4 20:31:37 10° N 20:34:46 46° WNW 20:37:51 10° SSW
ISS -3.1 20:31:33 10° W 20:34:52 59° NNW 20:38:12 10° ENE
SPOT 1/Viking Rocket 3.8 20:30:00 10° S 20:35:10 69° WSW 20:40:21 10° NNW
Cosmos 2227 Rocket 2.8 20:30:15 10° NNW 20:35:43 45° NE 20:40:08 15° SE
Cosmos 1814 Rocket 4.0 20:31:02 10° NNW 20:36:12 88° WSW 20:40:36 14° SSE
Meteor 1-27 Rocket 4.4 20:33:10 13° SSE 20:37:39 37° E 20:42:55 10° NNE
Cosmos 1315 Rocket 2.8 20:34:11 10° N 20:38:19 77° E 20:41:35 15° SSE
Spot 2 Rocket 3.8 20:35:17 15° SE 20:39:17 54° ENE 20:44:12 10° N
USA 276 4.2 20:38:59 10° W 20:40:53 16° SW 20:42:13 12° S
Meteor 1-11 Rocket 4.1 20:35:55 10° N 20:41:50 59° ENE 20:46:32 16° SSE
Cosmos 1666 Rocket 3.6 20:38:04 10° N 20:42:28 84° W 20:46:23 13° S
USA 215 3.7 20:44:40 10° ENE 20:50:38 36° SE 20:56:34 10° SSW
Cosmos 1980 Rocket 3.7 20:50:55 15° ESE 20:52:13 16° E 20:55:36 10° ENE
Cosmos 1184 Rocket 4.2 20:55:43 20° E 20:55:52 20° E 20:58:09 10° NE
ASTRO F (AKARI) 4.5 20:55:11 28° SE 20:56:28 50° ENE 20:59:27 10° N
Cosmos 1633 Rocket 3.3 20:53:44 10° NNW 20:58:08 70° W 21:01:36 16° S
Cosmos 2208 Rocket 4.1 20:52:43 10° NNW 20:58:13 87° ENE 21:02:03 20° SSE
Cosmos 1470 Rocket 3.5 20:56:59 10° N 21:01:22 76° E 21:04:03 22° SSE
Genesis I 3.2 20:58:17 10° SSW 21:02:16 73° SE 21:06:22 10° NE
Terra 2.1 20:59:20 22° SE 21:02:17 56° ENE 21:06:58 10° N
Cosmos 1656 3.6 20:58:38 10° SSW 21:04:13 78° ESE 21:09:46 10° NNE
Helios 1A Rocket 3.0 21:02:48 20° S 21:05:31 71° WSW 21:09:32 10° NNW
Nadezhda 4 Rocket 4.3 21:00:20 10° N 21:06:29 53° ENE 21:10:24 22° SE
ARIANE 5 R/B 3.0 21:04:58 24° SE 21:07:24 51° ENE 21:11:47 10° N
ATLAS 2AS CENTAUR R/B 4.2 21:07:42 18° ESE 21:09:31 19° ESE 21:14:32 10° ENE
Cosmos 1072 Rocket 4.4 21:04:23 15° S 21:09:31 70° E 21:15:36 10° NNE
Cosmos 1340 3.0 21:08:18 29° SSE 21:09:42 44° E 21:13:18 10° NNE
Cosmos 1151 Rocket 4.2 21:08:54 10° SSW 21:12:59 42° WNW 21:17:04 10° N
NOSS 3-4 (A) 3.5 21:07:50 10° SSW 21:13:13 46° ESE 21:19:00 10° NE
NOSS 3-4 (C) 3.6 21:07:54 10° S 21:13:19 46° ESE 21:19:06 10° NE
Cosmos 2297 Rocket 2.3 21:08:25 10° NNW 21:14:03 70° WSW 21:17:43 22° SSE
Cosmos 1697 Rocket 3.0 21:10:19 18° S 21:14:15 47° ESE 21:19:40 10° NE
SJ 16-02 3.1 21:15:05 16° E 21:15:09 16° E 21:17:46 10° ENE
Cosmos 1515 Rocket 3.4 21:15:06 22° S 21:17:51 76° E 21:22:14 10° NNE
Aureole 1 Rocket 3.1 21:17:56 33° ESE 21:18:06 33° ESE 21:20:59 10° NE
Cosmos 1536 2.8 21:19:41 10° NNW 21:23:42 77° W 21:25:39 29° S
Cosmos 389 Rocket 2.4 21:20:32 10° N 21:24:00 72° ENE 21:25:05 41° SSE
USA 267 3.7 21:20:48 11° ESE 21:27:04 60° NNE 21:33:30 10° NW
Cosmos 1869 Rocket 4.2 21:24:25 10° N 21:28:43 44° ENE 21:30:23 30° SE
Gbstr 26 Del rocket 4.4 21:22:12 10° WNW 21:29:03 50° SW 21:32:07 27° SSE
EXPRESS MD2 3.0 21:24:50 10° WNW 21:29:53 84° SSW 21:30:53 42° ESE
Geosat 4.0 21:30:45 29° SSE 21:33:23 76° WSW 21:38:26 10° NNW
NOSS 3-2 (C) 4.4 21:27:41 10° NW 21:35:07 60° WSW 21:40:33 24° SSE
Okean 1 3.6 21:35:04 39° SE 21:36:03 49° E 21:39:57 10° NNE
Cosmos 2034 Rocket 4.0 21:32:14 23° S 21:36:16 72° E 21:42:35 10° NNE
Cosmos 968 Rocket 4.0 21:32:38 10° SW 21:37:43 58° WNW 21:42:48 10° NNE
ERS-1 Rocket 3.4 21:34:44 23° S 21:37:47 57° W 21:42:46 10° NNW
Cosmos 405 4.2 21:34:59 10° NNW 21:38:05 33° W 21:39:33 22° SW
Cosmos 2219 3.3 21:34:41 10° NNW 21:40:20 72° WSW 21:43:10 30° S
Meteor 1-19 Rocket 4.2 21:40:11 30° SSE 21:42:45 59° E 21:48:05 10° NNE
SAR-Lupe-4 3.4 21:45:17 10° NNE 21:48:54 75° ESE 21:49:37 53° S
CZ-2C R/B 4.4 21:45:31 10° N 21:50:10 57° WNW 21:53:55 16° SW
Cosmos 1975 3.6 21:46:45 10° N 21:50:37 39° ENE 21:51:29 34° ESE
ATLAS 3B R/B 4.1 21:46:12 10° NW 21:52:46 35° NNE 21:59:34 10° E
Cosmos 2082 3.7 21:47:13 10° NNW 21:52:54 79° ENE 21:55:25 34° SE
Cosmos 1707 Rocket 4.4 21:56:16 33° ESE 21:56:56 35° E 22:00:59 10° NNE
SL-4 R/B 2.1 21:53:19 10° WNW 21:57:48 79° NNE 21:59:29 36° ESE
USA 81 4.4 21:56:24 35° SE 21:58:08 48° E 22:03:13 10° NNE
Cosmos 1354 Rocket 4.1 21:57:34 37° SSE 21:59:21 55° ESE 22:04:32 10° NNE
CSL-04 DEB 4.4 21:55:44 10° N 21:59:40 74° WNW 22:01:10 36° SSW
Cosmos 2344 3.4 21:52:25 10° SSW 21:59:52 71° SE 22:07:30 10° NE
SPOT 5 4.3 21:57:00 17° SSW 22:00:25 34° W 22:05:14 10° NNW
Cosmos 921 Rocket 3.0 21:59:18 10° NNW 22:03:51 87° WSW 22:05:07 47° SSE
Cosmos 1743 4.4 22:06:25 10° NNW 22:09:36 26° W 22:11:03 20° SW
CENTAUR R/B 4.4 22:02:42 10° NW 22:09:42 30° WSW 22:15:06 17° SSW
Cosmos 1378 3.1 22:11:13 61° ESE 22:11:19 62° E 22:14:57 10° NNE
Cosmos 1486 Rocket 4.4 22:07:18 16° SW 22:11:32 62° WNW 22:16:48 10° NNE
ISS -2.3 22:08:50 10° WNW 22:12:01 38° N 22:14:34 14° ENE
Meteor 2-4 Rocket 3.9 22:11:44 38° SSE 22:13:51 60° E 22:19:30 10° NNE
ALOS 2 3.9 22:12:51 24° E 22:14:08 29° ENE 22:17:53 10° N
Cosmos 1777 Rocket 4.3 22:13:31 41° SE 22:14:35 47° ESE 22:19:35 10° NNE
Cosmos 2279 Rocket 4.5 22:13:08 33° SE 22:15:16 45° E 22:21:08 10° NNE
Meteor 1-18 Rocket 4.2 22:13:21 37° S 22:15:42 76° E 22:21:24 10° NNE
Cosmos 2263 Rocket 2.4 22:10:54 10° NNW 22:16:29 63° ENE 22:18:44 35° SE
Cosmos 2227 Rocket 3.3 22:14:36 10° NW 22:19:36 33° WSW 22:21:57 24° SW
Cosmos 2369 3.7 22:22:37 28° SSW 22:25:43 86° WNW 22:31:26 10° NNE
Cosmos 2228 Rocket 3.5 22:27:54 37° SW 22:29:31 61° WNW 22:34:04 10° N
BREEZE-M DEB (TANK) 3.9 22:28:35 10° WNW 22:35:15 - E 22:29:35 23° WNW
Cosmos 773 Rocket 4.0 22:25:27 10° NNW 22:30:43 76° WSW 22:32:11 47° S
Cosmos 1733 Rocket 3.1 22:27:08 10° N 22:31:34 68° E 22:32:19 56° SE
Timation 2 Rocket 4.2 22:25:43 10° NNW 22:32:09 68° WSW 22:34:49 38° S
Spot 4 3.9 22:30:58 48° SE 22:32:14 68° ENE 22:37:01 10° N
Cosmos 1805 4.3 22:29:02 10° N 22:32:34 32° ENE 22:32:51 31° E
USA 215 3.3 22:27:27 10° NE 22:34:02 81° NNW 22:40:36 10° WSW
Cosmos 1980 Rocket 2.2 22:32:37 31° SSW 22:35:27 84° WNW 22:41:09 10° NNE
Cosmos 1862 Rocket 3.7 22:37:46 54° ESE 22:38:14 58° E 22:42:38 10° NNE
Cosmos 2322 Rocket 3.5 22:38:33 23° ESE 22:38:50 23° ESE 22:43:08 10° NE
Cosmos 1503 Rocket 4.4 22:36:12 25° SW 22:39:09 60° WNW 22:44:27 10° NNE
Terra 3.8 22:38:13 15° SW 22:40:23 19° W 22:43:48 10° NW
Cosmos 1092 Rocket 4.4 22:35:59 10° NNW 22:42:02 55° W 22:44:40 32° SSW
Meteor 2-8 Rocket 4.4 22:41:35 38° SSW 22:44:06 84° W 22:50:15 10° N
Cosmos 1538 Rocket 4.2 22:39:12 10° NNW 22:44:28 63° ENE 22:46:02 43° SE
RESURS DK-1 2.5 22:45:41 56° E 22:45:41 56° E 22:49:30 10° NE
Cosmos 2142 Rocket 4.5 22:43:10 41° S 22:45:34 77° E 22:51:59 10° NNE
Cosmos 1634 Rocket 4.1 22:44:08 34° SSW 22:47:01 72° W 22:53:15 10° N
Cosmos 2292 Rocket 4.3 22:44:23 10° NNW 22:47:23 29° W 22:47:23 29° W
Cosmos 2227 4.3 22:43:38 10° NNW 22:49:25 75° ENE 22:51:24 42° SE
SJ 16-02 1.7 22:52:00 41° WSW 22:53:13 58° WNW 22:57:33 10° NNE
Cosmos 1697 Rocket 4.2 22:53:17 10° WSW 22:58:24 34° NW 23:03:32 10° NNE
ATLAS 2AS CENTAUR R/B 2.9 22:55:03 29° SSW 22:59:27 77° SE 23:07:01 10° NE
Cosmos 1844 Rocket 4.0 22:54:25 10° NNW 22:59:31 34° NE 23:02:53 18° ESE
Iridium 4 Rocket 3.4 22:56:01 10° N 23:00:15 54° E 23:00:44 51° ESE
Cosmos 1346 Rocket 3.0 23:02:31 58° WSW 23:02:53 62° WNW 23:06:53 10° N
NOSS 3-4 (A) 4.5 22:58:38 10° WSW 23:04:08 43° NW 23:10:10 10° NE
NOSS 3-4 (C) 4.5 22:58:42 10° WSW 23:04:13 43° NW 23:10:16 10° NE
BREEZE-M DEB (TANK) 3.7 23:05:35 10° W 23:19:58 - SE 23:06:47 26° W
USA 267 3.3 23:08:08 42° S 23:10:08 57° SW 23:16:35 10° WNW
ERS-2 2.2 23:06:55 10° NNE 23:10:13 71° NE 23:10:13 71° NE
Iridium 2 4.2 23:07:46 10° NNW 23:11:20 48° W 23:11:20 48° W
SL-16 R/B 2.4 23:11:07 48° SSE 23:12:08 55° ESE 23:17:42 10° NE
Meteor 2-10 4.1 23:07:31 10° N 23:12:57 71° ENE 23:14:12 51° SE
Cosmos 2219 Rocket 4.3 23:13:42 11° ESE 23:14:27 11° E 23:16:09 10° ENE
H-2A R/B 3.6 23:15:05 10° N 23:19:07 63° WNW 23:19:32 59° WSW
ADEOS Rocket 2.7 23:23:29 49° SSE 23:25:04 83° ENE 23:30:50 10° NNW
Cosmos 1733 3.4 23:21:57 10° NNW 23:25:27 59° WNW 23:25:27 59° WNW
Cosmos 2278 4.2 23:24:59 28° WSW 23:27:48 55° WNW 23:33:24 10° NNE
Cosmos 1680 Rocket 4.1 23:22:49 10° NNW 23:28:02 51° ENE 23:29:59 34° ESE
SL-4 R/B 4.0 23:33:20 10° W 23:34:54 19° W 23:34:54 19° W
Cosmos 1726 2.3 23:33:23 10° N 23:36:43 69° NNE 23:36:43 69° NNE
Cosmos 2242 Rocket 3.6 23:40:47 64° SE 23:41:14 70° E 23:45:47 10° NNE
Cosmos 1842 3.7 23:43:10 51° E 23:43:10 51° E 23:46:48 10° NNE
NOSS 2-1 (E) 4.0 23:44:13 38° NE 23:44:13 38° NE 23:46:23 10° NE
Meteor 1-23 Rocket 4.3 23:42:22 50° SSE 23:43:54 73° E 23:49:44 10° NNE
ATLAS 3B R/B 2.8 23:36:53 10° NW 23:44:16 83° SW 23:47:59 34° SSE
Cosmos 1898 Rocket 3.7 23:44:55 50° SE 23:45:48 56° ESE 23:51:02 10° NNE
Cosmos 1703 Rocket 3.5 23:46:14 71° SW 23:46:40 81° W 23:51:09 10° N
Meteor 1-4 Rocket 3.9 23:44:23 10° NNW 23:46:46 29° WNW 23:46:46 29° WNW
Cosmos 2360 Rocket 2.5 23:47:34 45° SE 23:48:35 50° ESE 23:54:02 10° NE
ISS -2.1 23:45:44 10° WNW 23:47:28 28° WNW 23:47:28 28° WNW
GENESIS II 4.5 23:50:49 58° ENE 23:50:49 58° ENE 23:54:11 10° NE
ALOS 2 3.6 23:50:14 33° W 23:50:22 33° W 23:54:21 10° NNW
Meteor 1-12 Rocket 4.5 23:44:51 10° NNW 23:50:46 62° W 23:52:21 46° SSW
Cosmos 2266 Rocket 4.2 23:45:16 10° NNW 23:51:30 62° W 23:53:24 43° SSW
Cosmos 44 Rocket 3.5 23:47:55 10° NW 23:52:19 49° WSW 23:52:19 49° WSW
Okean 1-7 3.2 23:54:41 57° WSW 23:55:08 61° WNW 23:59:30 10° N
